Location: Aniagüita
(10.0946°N, 66.9708°W)
Time: 16:50:11
(UTC+00:00)

Delta 2 Rocket - Pass Details

Date: 30 June 2022
Orbit: 413 x 781 km, 35.6° (Epoch: 07 August)

Event Time Altitude Azimuth Distance (km) Brightness Sun altitude
Rises 23:13:26 0° 241° (WSW) 2,475 7.2 -5.5°
Reaches altitude 10° 23:15:42 10° 245° (WSW) 1,556 6.3 -6.0°
Maximum altitude 23:19:08 55° 324° (NW) 512 3.6 -6.7°
Drops below altitude 10° 23:22:23 10° 43° (NE) 1,473 5.3 -7.5°
Sets 23:24:29 0° 48° (NE) 2,326 6.3 -7.9°
